This demonstration page uses our WeatherBlox Daily Observations layout. Learn more.

Left ArrowRight Arrow

44.8408, -93.29828

Hourly Observations for September 12, 2016

Temp ( °F °C ) Dew Point ( °F °C ) Humidity (%) Winds ( mph kmh ) Pressure ( in mb ) Visibility ( mi km ) Precip ( " mm )
12:53 am 00:53 Mostly Clear 65 18.3 54 12.2 68 68 S 7 11 29.91 1013 10 16 0.00 0.00
1:53 am 01:53 Mostly Clear 65 18.3 53 11.7 66 66 S 8 13 29.91 1013 10 16 0.00 0.00
2:53 am 02:53 Clear 65 18.3 53 11.7 66 66 S 9 15 29.90 1013 10 16 0.00 0.00
3:53 am 03:53 Clear 64 17.8 53 11.7 68 68 S 10 17 29.88 1012 10 16 0.00 0.00
4:53 am 04:53 Clear 64 17.8 53 11.7 68 68 S 9 15 29.88 1012 10 16 0.00 0.00
5:53 am 05:53 Clear 63 17.2 53 11.7 70 70 S 10 17 29.88 1012 10 16 0.00 0.00
6:53 am 06:53 Sunny 62 16.7 53 11.7 73 73 S 13 20 29.86 1011 10 16 0.00 0.00
7:53 am 07:53 Mostly Sunny 62 16.7 53 11.7 73 73 S 10 17 29.85 1011 10 16 0.00 0.00
8:53 am 08:53 Mostly Sunny 66 18.9 54 12.2 65 65 S 10 17 29.84 1010 10 16 0.00 0.00
9:53 am 09:53 Mostly Sunny 70 21.1 55 12.8 59 59 S 10 17 29.83 1010 10 16 0.00 0.00
10:53 am 10:53 Mostly Sunny 73 22.8 55 12.8 53 53 SSW 14 22 29.82 1010 10 16 0.00 0.00
11:53 am 11:53 Mostly Sunny 76 24.4 57 13.9 52 52 S 10 17 29.80 1009 10 16 0.00 0.00
12:53 pm 12:53 Mostly Sunny 79 26.1 59 15 50 50 SSW 12 19 29.79 1009 10 16 0.00 0.00
1:53 pm 13:53 Partly Cloudy 81 27.2 60 15.6 49 49 SW 14 22 29.78 1009 10 16 0.00 0.00
2:53 pm 14:53 Mostly Cloudy 81 27.2 61 16.1 51 51 WSW 9 15 29.79 1009 10 16 0.00 0.00
3:53 pm 15:53 Cloudy 78 25.6 61 16.1 56 56 W 12 19 29.80 1009 10 16 0.00 0.00
4:53 pm 16:53 Cloudy 76 24.4 61 16.1 60 60 W 7 11 29.82 1010 10 16 0.00 0.00
5:39 pm 17:39 Cloudy with Nearby Thunderstorms 76 24.4 61 16.1 60 60 W 8 13 29.80 1009 10 16 0.00 0.00
5:53 pm 17:53 Cloudy with Nearby Thunderstorms 75 23.9 62 16.7 64 64 WNW 10 17 29.84 1010 10 16 0.00 0.00
5:58 pm 17:58 Cloudy 75 24 63 17 65 65 WNW 10 17 29.83 1010 10 16 0.00 0.00
6:53 pm 18:53 Cloudy 72 22.2 61 16.1 68 68 NNW 7 11 29.84 1010 10 16 0.00 0.00
7:53 pm 19:53 Cloudy 72 22.2 60 15.6 66 66 NW 10 17 29.88 1012 10 16 0.00 0.00
8:53 pm 20:53 Cloudy 70 21.1 59 15 68 68 NNW 14 22 29.91 1013 10 16 0.00 0.00
9:53 pm 21:53 Cloudy 69 20.6 60 15.6 73 73 NNW 12 19 29.93 1014 10 16 0.00 0.00
10:13 pm 22:13 Cloudy 68 20 60 15.6 76 76 NNW 13 20 29.94 1014 10 16 0.00 0.00
10:53 pm 22:53 Cloudy 67 19.4 60 15.6 79 79 NNW 15 24 29.93 1014 10 16 0.00 0.00
11:23 pm 23:23 Cloudy 65 18.3 58 14.4 78 78 N 15 24 29.94 1014 10 16 0.00 0.00
11:51 pm 23:51 Cloudy 64 18 57 14 78 78 N 13 20 29.94 1014 10 16 0.00 0.00
11:53 pm 23:53 Cloudy 65 18.3 57 13.9 76 76 N 13 20 29.96 1015 10 16 0.00 0.00

Powered by AerisWeather